User: anonymous   Login
Location: Dover
(39.1580°N, 75.5250°W)
Time: 23:43:52
(UTC-04:00)
Language:

Cosmos 1437 Rocket - Orbit

View from above orbital plane
View from above orbital plane
View from above satellite
View from above satellite

Ground track
Ground track

The orbit data is extracted from the following two-line orbital elements,

1 13771U 83003B   17176.56564212 +.00001109 +00000-0 +65849-4 0  9993
2 13771 081.1596 353.0099 0039597 340.9339 019.0401 15.09851193875056
Epoch (UTC): 25 June 2017 13:34:31
Eccentricity: 0.0039597
inclination: 81.1596°
perigee height: 509 km
apogee height: 564 km
right ascension of ascending node: 353.0099°
argument of perigee: 340.9339°
revolutions per day: 15.09851193
mean anomaly at epoch: 19.0401°
orbit number at epoch: 87505

The dashed part of the orbit path shows where the satellite is in the earth's shadow,  

DLR